Hourly Data Report for April 25, 2016

All times are specified in Local Standard Time (LST). Add 1 hour to adjust for Daylight Saving Time where and when it is observed.

EMERSON AUTO
MANITOBA

49°00'00.000" N
97°14'15.000" W
242.00 m
5020881
71560
WEX

Download Data

Hourly Data (April 2016)
Hourly Data Report for April 25, 2016
Temp Definition
°C
Dew Point Temp Definition
°C
Rel Hum Definition
%
Wind Dir Definition
10's deg

Wind Spd Definition
km/h
Visibility Definition
km
Stn Press Definition
kPa
Hmdx Definition


Wind Chill Definition


Weather Definition


TIME
00:00 7.1 -3.6 47 5 23   98.15     LegendNANA
01:00 6.6 -3.5 48 5 23   98.13     LegendNANA
02:00 5.9 -3.2 52 5 26   98.10     LegendNANA
03:00 5.2 -2.6 57 5 26   98.06     LegendNANA
04:00 4.5 -2.5 61 5 23   98.06     LegendNANA
05:00 4.0 -2.5 63 5 22   98.06     LegendNANA
06:00 4.2 -3.0 59 6 26   98.08     LegendNANA
07:00 4.3 -3.1 59 6 25   98.07     LegendNANA
08:00 4.6 -2.9 58 6 24   98.08     LegendNANA
09:00 5.3 -2.6 57 7 24   98.08     LegendNANA
10:00 5.9 -1.4 59 7 20   98.10     LegendNANA
11:00 6.0 0.1 66 7 26   98.11     LegendNANA
12:00 7.3 0.5 62 8 24   98.15     LegendNANA
13:00 8.6 -0.4 53 7 27   98.20     LegendNANA
14:00 8.1 -0.5 55 8 24   98.26     LegendNANA
15:00 7.8 -1.1 54 7 20   98.31     LegendNANA
16:00 8.4 -1.1 51 7 20   98.31     LegendNANA
17:00 8.9 -1.6 48 7 19   98.32     LegendNANA
18:00 8.4 -1.4 50 7 16   98.37     LegendNANA
19:00 8.2 -2.1 48 8 14   98.42     LegendNANA
20:00 7.5 -1.4 53 8 7   98.49     LegendNANA
21:00 6.9 -0.8 58 8 4   98.56     LegendNANA
22:00 5.7 -0.3 65 14 7   98.60     LegendNANA
23:00 5.1 -0.5 67 11 6   98.61     LegendNANA

Notes on Data Quality.

Legend

  • E = Estimated
  • M = Missing
  • NA = Not Available
  • ‡ = Partner data that is not subject to review by the National Climate Archives
Date modified: